This is the latest recevied weather packets stored in our database for station/object TG5ALY-15. If no packets are shown the sender has not sent any weather packets the latest 10 day(s).
| Time | Temp. | Humidity | Pressure | Rain* | Wind** | Luminosity | Snow |
|---|---|---|---|---|---|---|---|
| 1778264214 | 25° C | 38% | 1028.3 hPa | 0 mm | - | 1047 W/m² | - |
| 1778263013 | 24.44° C | 36% | 1028.3 hPa | 0 mm | - | 1003 W/m² | - |
| 1778261812 | 24.44° C | 37% | 1028.7 hPa | 0 mm | - | 1001 W/m² | - |
| 1778260611 | 23.33° C | 45% | 1029.2 hPa | 0 mm | - | 883 W/m² | - |
| 1778259410 | 23.33° C | 40% | 1029.2 hPa | 0 mm | - | 868 W/m² | - |
| 1778258211 | 23.33° C | 45% | 1029.2 hPa | 0 mm | - | 852 W/m² | - |
| 1778257009 | 22.78° C | 49% | 1029.2 hPa | 0 mm | - | 824 W/m² | - |
| 1778255805 | 22.22° C | 52% | 1029.5 hPa | 0 mm | - | 765 W/m² | - |
| 1778254604 | 22.22° C | 50% | 1029.9 hPa | 0 mm | - | 694 W/m² | - |
| 1778253402 | 20.56° C | 56% | 1029.9 hPa | 0 mm | - | 593 W/m² | - |
| 1778252200 | 19.44° C | 60% | 1029.9 hPa | 0 mm | - | 540 W/m² | - |
| 1778251001 | 18.33° C | 66% | 1030.4 hPa | 0 mm | - | 478 W/m² | - |
| 1778249799 | 16.67° C | 70% | 1029.9 hPa | 0 mm | - | 399 W/m² | - |
| 1778248597 | 15.56° C | 77% | 1030.4 hPa | 0 mm | - | 269 W/m² | - |
| 1778247395 | 14.44° C | 78% | 1029.9 hPa | 0 mm | - | 210 W/m² | - |
| 1778246194 | 13.33° C | 80% | 1029.5 hPa | 0 mm | - | 148 W/m² | - |
| 1778244991 | 12.78° C | 85% | 1029.5 hPa | 0 mm | - | 73 W/m² | - |
| 1778243787 | 13.33° C | 76% | 1029.5 hPa | 0 mm | - | 57 W/m² | - |
| 1778242588 | 11.67° C | 88% | 1029.2 hPa | 0 mm | - | 41 W/m² | - |
| 1778241384 | 11.67° C | 83% | 1029.2 hPa | 0 mm | - | 18 W/m² | - |
| 1778240183 | 10.56° C | 90% | 1029.2 hPa | 0 mm | - | 3 W/m² | - |
| 1778238982 | 11.67° C | 91% | 1028.3 hPa | 0 mm | - | 0 W/m² | - |
| 1778237779 | 11.67° C | 91% | 1028.7 hPa | 0 mm | - | 0 W/m² | - |
| 1778236574 | 12.22° C | 89% | 1028.3 hPa | 0 mm | - | 0 W/m² | - |
| 1778235369 | 11.67° C | 92% | 1028.3 hPa | 0 mm | - | 0 W/m² | - |
* Rain latest hour (hover to see other rain measurements)
** Current wind speed in m/s (hover to see current wind gust speed)